Weather History for Pineville, WV

Change the Weather History Date:

Tuesday, March 11, 2014

  Actual Average (KBKW) Record (KBKW)
Temperature  
Mean Temperature 53 °F 40 °F  
Max Temperature 73 °F 50 °F 74 °F (1990)
Min Temperature 33 °F 31 °F 7 °F (1934)
Degree Days  
Heating Degree Days 12 25  
Month to date heating degree days 287  
Since 1 July heating degree days 4288  
Cooling Degree Days 0 0  
Month to date cooling degree days 0  
Year to date cooling degree days 0  
Growing Degree Days 3 (Base 50)    
Moisture  
Dew Point 39 °F    
Average Humidity 72    
Maximum Humidity 100    
Minimum Humidity 29    
Precipitation  
Precipitation 0.00 in 0.11 in 1.18 in (1939)
Month to date precipitation 1.22  
Year to date precipitation 6.79  
Snow  
Snow 0.00 in - - ()
Month to date snowfall  
Since 1 September snowfall  
Snow Depth -    
Sea Level Pressure  
Sea Level Pressure 29.82 in    
Wind  
Wind Speed - (North)    
Max Wind Speed -    
Max Gust Speed -    
Visibility 10 miles    
Events      
T = Trace of Precipitation, MM = Missing Value Source: NWS Daily Summary

Daily Weather History Graph

Daily Weather History Graph

Search for Another Location

Airport:

Trip Planner

Search our weather history database for the weather conditions in past years. The results will help you decide how hot, cold, wet, or windy it might be!

Date:

Astronomy

Mar. 11, 2014 Rise Set
Actual Time 7:43 AM EDT 7:29 PM EDT
Civil Twilight 7:17 AM EDT 7:55 PM EDT
Nautical Twilight 6:46 AM EDT 8:26 PM EDT
Astronomical Twilight 6:16 AM EDT 8:56 PM EDT
Moon 3:08 PM EDT (3/11) 4:31 AM EDT (3/11)
Length of Visible Light 12h 38m
Length of Day
11h 46m
Waxing Gibbous, 78% of the Moon is Illuminated
Mar 11
Waxing Gibbous
Mar 16
Full
Mar 23
Last Quarter
Mar 30
New
Apr 7
First Quarter

Hourly Weather History & Observations

Time (EDT) Temp. Dew Point Humidity Pressure Visibility Wind Dir Wind Speed Gust Speed Precip Events Conditions
12:15 AM 40.1 °F 36.5 °F 87% 29.89 in 10.0 mi North - - N/A   Clear
12:35 AM 39.4 °F 36.1 °F 88% 29.89 in 10.0 mi North - - N/A   Clear
12:55 AM 39.6 °F 36.5 °F 89% 29.89 in 10.0 mi North - - N/A   Clear
1:15 AM 38.5 °F 36.1 °F 91% 29.89 in 10.0 mi North - - N/A   Clear
1:35 AM 38.3 °F 36.5 °F 93% 29.89 in 10.0 mi North - - N/A   Clear
1:55 AM 37.9 °F 36.5 °F 95% 29.89 in 10.0 mi North - - N/A   Clear
2:15 AM 37.4 °F 36.1 °F 95% 29.89 in 10.0 mi North - - N/A   Clear
2:35 AM 37.4 °F 36.3 °F 96% 29.89 in 10.0 mi North - - N/A   Clear
2:55 AM 36.9 °F 36.1 °F 97% 29.89 in 10.0 mi North - - N/A   Clear
3:15 AM 36.5 °F 35.8 °F 97% 29.89 in 10.0 mi North - - N/A   Clear
3:35 AM 36.5 °F 35.8 °F 97% 29.88 in 10.0 mi North - - N/A   Clear
3:55 AM 36.0 °F 35.8 °F 99% 29.88 in 10.0 mi North - - N/A   Clear
4:15 AM 35.8 °F 35.6 °F 99% 29.87 in 10.0 mi North - - N/A   Clear
4:35 AM 35.6 °F 35.1 °F 98% 29.87 in 10.0 mi North - - N/A   Clear
4:50 AM 35.4 °F 35.1 °F 99% 29.87 in 10.0 mi North - - N/A   Clear
5:15 AM 35.2 °F 35.2 °F 100% 29.87 in 10.0 mi North - - N/A   Clear
5:35 AM 34.7 °F 34.7 °F 100% 29.87 in 10.0 mi North - - N/A   Clear
5:55 AM 34.9 °F 34.9 °F 100% 29.87 in 10.0 mi North - - N/A   Clear
6:15 AM 34.3 °F 34.3 °F 100% 29.87 in 7.0 mi North - - N/A   Clear
6:35 AM 34.3 °F 34.3 °F 100% 29.87 in 10.0 mi North - - N/A   Clear
6:55 AM 33.8 °F 33.8 °F 100% 29.88 in 10.0 mi North - - N/A   Clear
7:15 AM 33.8 °F 33.8 °F 100% 29.89 in 10.0 mi North - - N/A   Clear
7:35 AM 33.8 °F 33.8 °F 100% 29.89 in 10.0 mi North - - N/A   Clear
7:55 AM 34.0 °F 34.0 °F 100% 29.89 in 5.0 mi North - - N/A   Clear
8:15 AM 34.0 °F 34.0 °F 100% 29.89 in 7.0 mi North - - N/A   Clear
8:35 AM 34.5 °F 34.5 °F 100% 29.89 in 10.0 mi North - - N/A   Clear
8:55 AM 35.8 °F 35.8 °F 100% 29.89 in 7.0 mi North - - N/A   Clear
9:15 AM 37.4 °F 37.4 °F 100% 29.89 in 10.0 mi North - - N/A   Clear
9:35 AM 39.6 °F 39.6 °F 100% 29.89 in 10.0 mi North - - N/A   Clear
9:55 AM 42.3 °F 41.9 °F 99% 29.89 in 10.0 mi North - - N/A   Clear
10:15 AM 46.0 °F 43.7 °F 92% 29.89 in 10.0 mi North - - N/A   Clear
10:35 AM 50.7 °F 45.3 °F 82% 29.88 in 10.0 mi North - - N/A   Clear
10:55 AM 56.8 °F 43.9 °F 62% 29.87 in 10.0 mi North - - N/A   Clear
11:15 AM 58.5 °F 43.9 °F 58% 29.87 in 10.0 mi North - - N/A   Clear
11:35 AM 61.0 °F 43.9 °F 53% 29.86 in 10.0 mi North - - N/A   Clear
11:55 AM 63.1 °F 43.7 °F 49% 29.86 in 10.0 mi North - - N/A   Clear
12:15 PM 64.4 °F 43.3 °F 46% 29.84 in 10.0 mi North - - N/A   Clear
12:35 PM 65.7 °F 43.3 °F 44% 29.83 in 10.0 mi North - - N/A   Clear
12:55 PM 65.5 °F 42.4 °F 43% 29.82 in 10.0 mi North - - N/A   Clear
1:15 PM 66.0 °F 42.8 °F 43% 29.82 in 10.0 mi North - - N/A   Clear
1:35 PM 66.7 °F 41.5 °F 40% 29.81 in 10.0 mi North - - N/A   Clear
1:55 PM 67.6 °F 41.4 °F 38% 29.80 in 10.0 mi North - - N/A   Clear
2:15 PM 67.8 °F 41.2 °F 38% 29.79 in 10.0 mi North - - N/A   Clear
2:35 PM 70.7 °F 41.2 °F 34% 29.77 in 10.0 mi North - - N/A   Clear
2:55 PM 72.9 °F 41.4 °F 32% 29.77 in 10.0 mi North - - N/A   Clear
3:15 PM 72.9 °F 39.4 °F 30% 29.76 in 10.0 mi North - - N/A   Clear
3:35 PM 73.0 °F 38.7 °F 29% 29.76 in 10.0 mi North - - N/A   Clear
3:55 PM 72.9 °F 38.8 °F 29% 29.76 in 10.0 mi North - - N/A   Clear
4:15 PM 72.9 °F 39.4 °F 30% 29.75 in 10.0 mi North - - N/A   Clear
4:35 PM 73.4 °F 39.2 °F 29% 29.75 in 10.0 mi North - - N/A   Clear
4:55 PM 73.9 °F 39.4 °F 29% 29.75 in 10.0 mi North - - N/A   Clear
5:15 PM 73.4 °F 39.4 °F 29% 29.74 in 10.0 mi North - - N/A   Clear
5:35 PM 72.9 °F 39.0 °F 29% 29.73 in 10.0 mi North - - N/A   Clear
5:55 PM 71.1 °F 38.7 °F 31% 29.73 in 10.0 mi North - - N/A   Clear
6:15 PM 68.0 °F 40.5 °F 37% 29.74 in 10.0 mi North - - N/A   Clear
6:35 PM 65.5 °F 41.7 °F 42% 29.74 in 10.0 mi North - - N/A   Clear
6:55 PM 62.6 °F 41.9 °F 47% 29.74 in 10.0 mi North - - N/A   Clear
7:15 PM 60.4 °F 42.8 °F 52% 29.74 in 10.0 mi North - - N/A   Clear
7:35 PM 57.4 °F 43.0 °F 59% 29.74 in 10.0 mi North - - N/A   Clear
7:55 PM 54.9 °F 43.3 °F 65% 29.75 in 10.0 mi North - - N/A   Clear
8:15 PM 52.9 °F 43.0 °F 69% 29.75 in 10.0 mi North - - N/A   Clear
8:35 PM 51.1 °F 42.6 °F 73% 29.75 in 10.0 mi North - - N/A   Clear
8:55 PM 50.0 °F 42.1 °F 74% 29.75 in 10.0 mi North - - N/A   Clear
9:15 PM 49.1 °F 41.9 °F 76% 29.75 in 10.0 mi North - - N/A   Clear
9:35 PM 48.4 °F 41.5 °F 77% 29.75 in 10.0 mi North - - N/A   Clear
9:55 PM 47.5 °F 41.4 °F 79% 29.75 in 10.0 mi North - - N/A   Clear
10:15 PM 46.8 °F 41.2 °F 81% 29.75 in 10.0 mi North - - N/A   Clear
10:35 PM 46.0 °F 41.0 °F 83% 29.76 in 10.0 mi North - - N/A   Clear
10:55 PM 45.5 °F 41.0 °F 84% 29.75 in 10.0 mi North - - N/A   Clear
11:15 PM 44.8 °F 40.8 °F 86% 29.73 in 10.0 mi North - - N/A   Clear
11:35 PM 44.2 °F 40.5 °F 87% 29.73 in 10.0 mi North - - N/A   Clear
11:55 PM 44.1 °F 40.6 °F 88% 29.73 in 10.0 mi North - - N/A   Clear